DELTA 1 DEB

Satellite information

Favourite Embed

Satellite Type and Status

DEBRISIN ORBIT

Key statistics

Satellite DELTA 1 DEB at a glance.

Uptime

18289

Days in orbit

Revolutions

≈ 13.1

Per day

Orbit

SSO

Sun Synchronous Orbit

Inclination

99.6

Latest

Satellite identification and parameters

Extended collection of information and parameters for DELTA 1 DEB.

Object identification

Identified? True

Debris? True

Object name: DELTA 1 DEB

International designator: 1975-052AS

Object number (NORAD): 21324

Object ID (CCSDS): 21324

Country: UNITED STATES OF AMERICA (US)

Current information (Y/N): Y

RCS size: SMALL

Orbital parameters

Period: 109.913 minutes

Inclination: 99.5654 deg

SMA: 7600.787 km

Apoapsis: 1456.02 km

Periapsis: 989.284 km

RAAN: 211.3892 deg

Eccentricy: 0.0307031

Argument of periapsis: 333.5919 deg

Mean anomaly: 209.9102 deg

Mean motion: 13.10131639 rev/day

Mean motion (dot): 0.00000484 rev/day2

B* drag term: 0.0011916 1/REarth

Two-line elements (TLE)

Creation date: July 8, 2025, 2:27 a.m.

Reference frame: TEME

Reference center: EARTH

Epoch: July 7, 2025, 8:18 p.m. UTC

TLE line 0: 0 DELTA 1 DEB

TLE line 1: 1 21324U 75052AS 25188.84602630 .00000484 00000-0 11916-2 0 9990

TLE line 2: 2 21324 99.5654 211.3892 0307031 333.5919 209.9102 13.10131639620914

Live tracking on map

Real-time ground track for satellite DELTA 1 DEB.

In-orbit conjunctions

A list of the most updated potential collisions computed for object DELTA 1 DEB.

Target Orbit TCA Probability of collision Miss distance Type
COSMOS 2066 LEO 2025-01-03 17:18:54 0.0002574548 434.0 (m) PAYLOAD
BREEZE-KM R/B LEO 2024-08-18 12:44:08 0.0001744301 570.0 (m) ROCKET BODY

Associated space launch

Experimental meteorological satellite

DELTA 1 DEB was lifted into orbit during the mission ‘Delta 2910 | Nimbus 6’, on board a Delta 2910 space rocket.

The launch took place on June 12, 1975, 8:12 a.m. from Space Launch Complex 2W.

For more information about the launch, click the button.

Launch to space Delta 2910 | Nimbus 6
Delta 2910 | Nimbus 6

Agency: N/A

Status: Launch Successful

Launch date: June 12, 1975, 8:12 a.m. UTC

Rocket: Delta 2910

Launch pad: Space Launch Complex 2W

Location: Vandenberg SFB, CA, USA

...

Latest news about this satellite

There are no fresh news available about this satellite. Check back as we update our databases every day.


Newsletter sign-up

Weekly statistics, charts and insights to help you stay on top of the space industry.